EC1DIR-13 Weather Reports


time (UTC)temp
C
wind
direction
speed
KPH
gust
KPH
rain 1hr
cm
rain 24hr
cm
rain mn
cm
humidity
%
barometer
mb
20260504050011 7 280 0.0 0.0 0.00 0.58 0.00 60 1012.8
20260504044507 7 127 0.0 0.0 0.00 0.61 0.00 59 1012.7
20260504043008 7 128 0.0 0.0 0.00 0.61 0.00 59 1012.7
20260504041504 7 129 0.0 0.0 0.00 0.61 0.00 59 1012.8
20260504040007 8 129 0.0 0.0 0.00 0.61 0.00 58 1012.8
20260504034615 8 129 0.0 0.0 0.00 0.61 0.00 58 1012.9
20260504033101 8 129 0.0 0.0 0.00 0.61 0.00 57 1013.0
20260504031611 8 129 0.0 0.0 0.00 0.61 0.00 56 1013.1
20260504030114 8 129 0.0 0.0 0.00 0.61 0.00 56 1013.2
20260504024556 8 153 0.0 0.0 0.00 0.61 0.00 57 1013.0
20260504023055 8 124 0.0 0.0 0.00 0.61 0.00 57 1013.1
20260504021605 8 123 0.0 0.0 0.00 0.61 0.00 57 1013.1
20260504020054 8 125 0.0 0.0 0.00 0.61 0.00 56 1013.1
20260504014552 8 95 0.0 0.0 0.00 0.64 0.00 57 1013.1
20260504013050 9 93 0.0 0.0 0.00 0.64 0.00 56 1013.3
20260504011549 9 95 0.0 0.0 0.00 0.64 0.00 56 1013.2
20260504010046 10 95 0.0 0.0 0.00 0.64 0.00 55 1013.3
20260504004544 10 94 0.0 0.0 0.00 0.64 0.00 54 1013.3
20260504003045 10 95 0.0 0.0 0.00 0.64 0.00 53 1013.4
20260504001541 10 108 0.0 0.0 0.00 0.64 0.00 53 1013.6
20260504000047 11 154 0.0 0.0 0.00 0.64 0.00 52 1013.8
20260503234534 11 201 0.0 0.0 0.00 0.64 0.00 51 1013.8
20260503233038 11 83 0.0 0.0 0.00 0.64 0.00 49 1013.7
20260503231531 12 14 0.0 1.6 0.00 0.64 0.00 48 1013.9
20260503230030 12 93 0.0 0.0 0.00 0.64 0.00 48 1013.9
20260503224530 12 112 0.0 6.4 0.00 0.64 0.00 47 1013.9
20260503223026 12 94 0.0 4.8 0.00 0.64 0.00 44 1013.8
20260503221524 12 150 0.0 0.0 0.00 0.64 0.00 47 1013.9
20260503220024 13 256 0.0 0.0 0.00 0.64 0.00 46 1013.8
20260503214523 13 137 0.0 0.0 0.00 0.64 0.64 43 1013.7
20260503213021 13 174 0.0 0.0 0.00 0.64 0.64 45 1013.7
20260503211520 13 174 0.0 0.0 0.00 0.64 0.64 45 1013.8
20260503210021 13 124 0.0 0.0 0.00 0.64 0.64 46 1013.7
20260503204520 13 124 0.0 0.0 0.00 0.64 0.64 46 1013.5
20260503203022 14 279 0.0 0.0 0.00 0.64 0.64 46 1013.2
20260503201519 14 359 0.0 0.0 0.00 0.64 0.64 45 1013.1
20260503200018 14 156 0.0 1.6 0.00 0.64 0.64 44 1012.9
20260503194518 15 214 0.0 0.0 0.00 0.64 0.64 45 1012.6
20260503193018 15 214 0.0 0.0 0.00 0.64 0.64 44 1012.7
20260503191517 15 214 0.0 1.6 0.00 0.64 0.64 41 1012.5
20260503190017 15 203 0.0 4.8 0.00 0.64 0.64 40 1012.3
20260503184519 16 145 0.0 4.8 0.00 0.64 0.64 39 1012.3
20260503183016 16 179 0.0 12.9 0.00 0.64 0.64 38 1012.2
20260503181515 16 177 0.0 11.3 0.00 0.64 0.64 36 1012.3
20260503180015 16 184 1.6 14.5 0.00 0.64 0.64 35 1012.3
20260503174517 17 234 4.8 16.1 0.00 0.64 0.64 35 1012.1
20260503173014 17 174 3.2 20.9 0.00 0.64 0.64 36 1012.1
20260503171514 16 170 6.4 27.4 0.00 0.64 0.64 38 1012.0
20260503081525 14 87 0.0 0.0 0.00 1.12 0.46 59 1015.0